Погода Lublin Radawiec

Погода Lublin Radawiec : погода сейчас, прогноз погоды и архив. Всё, что Вы хотите узнать о погоде Lublin Radawiec!

Поиск расширенной информации на нашем сайте:

Другие новости

Новости СМИ2

Главная страница сайта

Новости сайта

03.07.2017

Напоминаем, что на нашем специализированном сайте Метеоцентр.Азия вы можете получить высокодетализированные автоматические прогнозы погоды по пунктам России, СНГ и мира в авиационном формате (включающие направление и скорость ветра, видимость, явления погоды, количество и форму облачности, нижнюю и верхнюю границу облачности).


Погода Lublin Radawiec - сегодня

Время (UTC), дата Ветер
(°,м/с) 
Видим.   Явления Облачность Т
(°С)
Тd
(°С)
f(%) Тe
(°С)
Pmin
(гПа)
dP
(гПа)
Po
(мм)
O2
(г/м3)
Тmin Tmax R s Состояние
почвы
06 15.09.18 360 (С) 2500 м  дымка{ливн. осадки}  9/9 30 м 
[St]
+13.2 +13 99 +20  1018.4  0.3  742  283  +12.7  +16.3  14    влажная 
09 15.09.18 330 (СЗ) 15000 м  слаб. ливневой дождь  9/9 150 м кучево-дожд. 
[Cb cap]
+15.2 +14.2 94 +24  1018.9  0.7  743  281           
12 15.09.18 310 (СЗ) 12000 м  {ливн. осадки, дождь}  10/10 600 м кучево-дожд. 
[Cb cap]
+16.9 +14.3 85 +26  1019.3  0.5  743  279      0.5     
18 15.09.18 310 (СЗ) 40000 м    9/9 2000 м 
[Sc]
+14.9 +10.4 74 +18  1021.1  1.5  744  282  +13  +18.2  0.5     
21 15.09.18 300 (СЗ) 16000 м    ясно 
+13.1 +9.4 78 +14  1022  0.7  745  285           
00 16.09.18 300 (СЗ) 13000 м    1/1 1500 м 
[Sc]
+11.3 +8.4 82 +11  1022.9  0.7  745  287           
03 16.09.18 300 (СЗ) 14000 м    ясно 
+9.8 +7.8 87 +9  1023.6  0.5  746  289           
06 16.09.18 310 (СЗ) 20000 м    4/0 средняя, верхняя 
[Ac trans|Ci fib]
+11.6 +8.7 82 +11  1024.6  1.2  747  287  +9.5  +14.9      влажная 
09 16.09.18 350 (С) 27000 м    5/1 600 м верхняя 
[Cu hum|Ci fib]
+16 +10.2 68 +17  1025.3  1.1  748  283           
12 16.09.18 310 (СЗ) 35000 м    5/4 1000 м верхняя 
[Cu med, cong|Ci fib]
+17.8 +8.5 54 +18  1024.9  -0.2  747  281           
15 16.09.18 300 (СЗ) 50000 м    5/3 1000 м верхняя 
[Cu med, cong|Ci fib]
+17.3 +8.5 56 +18  1024.6  -0.4  747  282           
18 16.09.18 тихо ()   45000 м    6/0 верхняя 
[Cs]
+12.3 +9.4 82 +13  1025.5  0.4  747  286  +11.6  +19.4       
21 16.09.18 тихо ()   35000 м    ясно 
+9.6 +8.5 93 +10  1026.1  0.3  748  290           
00 17.09.18 тихо ()   8000 м  дымка  ясно 
+8.7 +7.9 95 +9  1026.1  -0.1  748  291           
03 17.09.18 150 (ЮВ) 6000 м  дымка  3/0 верхняя 
[Ci fib]
+7.8 +7.3 97 +9  1025.4  -0.7  747  291           
09 17.09.18 200 (Ю) 40000 м    9/0 средняя, верхняя 
[Ac trans|Cs]
+18.4 +11.3 63 +23  1024.3  -0.2  747  280           
12 17.09.18 180 (Ю) 45000 м    1/0 верхняя 
[Ci fib]
+21.2 +9.5 47 +22  1022.9  -1.1  746  277           
15 17.09.18 230 (ЮЗ) 40000 м    3/0 верхняя 
[Ci fib]
+21.8 +10.4 48 +24  1021.7  -1.1  745  276           
18 17.09.18 тихо ()   25000 м    8/0 верхняя 
[Cs]
+13.7 +10.6 82 +16  1022.8  0.3  746  284  +11.8  +22.3       
21 17.09.18 170 (Ю) 15000 м    4/0 верхняя 
[Ci fib]
+11.7 +10.2 91 +15  1022.9  -0.1  745  286           
00 18.09.18 150 (ЮВ) 15000 м    5/0 верхняя 
[Ci]
+12.3 +10.8 91 +16  1022.6  -0.2  745  285           
06 18.09.18 190 (Ю) 12000 м    8/0 верхняя 
[Cs]
+13.8 +12.1 89 +19  1022.8  0.5  746  284  +11  +13.9      сухая 
09 18.09.18 210 (ЮЗ) 23000 м    8/0 верхняя 
[Cs]
+21.6 +15.1 67 +31  1022.4  0.4  746  275           
12 18.09.18 190 (Ю) 30000 м    8/1 1000 м верхняя 
[Cu med, cong|Cs]
+24.4 +15.1 56 +33  1020.9  -1.2  745  272           
15 18.09.18 200 (Ю) 30000 м    9/0 верхняя 
[Cs]
+23.6 +14.1 55 +31  1019.9  -1  744  273           
Время (UTC), дата Ветер
(°,м/с) 
Видим.   Явления Облачность Т
(°С)
Тd
(°С)
f(%) Тe
(°С)
Pmin
(гПа)
dP
(гПа)
Po
(мм)
O2
(г/м3)
Тmin Tmax R s Состояние
почвы

Для получения пояснительной информации подведите курсор к названию столбца.

ПОГОДА Lublin Radawiec - архив

Всё, что Вы хотите узнать о погоде Lublin Radawiec - удобно и подробно!

Выберите нужную дату (начиная с 1 января 2015* года) и нажмите кнопку "Найти".
Будут отображены архивные сводки погоды по пункту Lublin Radawiec, начиная с указанной даты.


Отображать данные в формате CSV (для использования в таблицах Excel)


Внимание! Наш архив погоды предназначен исключительно для личного некоммерческого использования в познавательных целях. Если Вам необходимы официальные справки о состоянии погоды (для производственных, юридических, коммерческих и т.п. целей), обращайтесь в органы Росгидромета.

*Примечание: данная дата относится к архиву по метеостанциям СССР (Россия, СНГ, Балтия).
Архив по метеостанциям Зарубежной Европы и Азии (кроме Китая) хранится 10 дней, по другим регионам земного шара (Китай, Африка, Америка, Австралия, Океания) - 1 день.

Lublin Radawiec - район местоположения метеостанции


Название, широта, долгота, высота метеостанции:
Lublin Radawiec 51.2°ш. 22.4°д. 240 м над ур. моря [Poland]

Дополнительная информация

В oтличие oт бoльшинства пoгoдных сайтoв мы публикуем пoдрoбную метеoинфoрмацию в детальнoм прoфессиoнальнoм фoрмате.

Характеристики температуры и влажнoсти вoздуха измеряются на высoте 2 м в тени вдали oт зданий и деревьев.
Скoрoсть ветра измеряется на высoте 10 м (на урoвне рoста челoвека скoрoсть ветра ниже в 1.5-2 раза). Если метеoстанция нахoдится в гoрoде или в лесу, тo скoрoсть ветра занижена на 2-4 м/с пo сравнению с oткрытым местoм. Скoрoсть ветра над акватoриями крупных рек и oзёр, а также на вершинах хoлмoв на 2-5 м/с выше, чем в oбычных услoвиях.
Атмoсфернoе давление в разных тoчках местнoсти мoжет значительнo oтличаться oт давления на метеoстанции, в зависимoсти oт услoвий рельефа (при пoдъёме на 10 м давление пoнижается примернo на 1 мм рт.ст.).